Regional Weather Roundup
Issued by NWS

Home | Current Version | Previous Version | Graphics & Text | Print | Product List | Glossary On
Versions: 1 2 3 4 5 6 7 8 9 10 11 12 13 14 15 16 17 18 19 20 21 22 23 24 25 26 27 28 29 30 31 32 33 34 35 36 37 38 39 40 41 42 43 44 45 46 47 48 49 50
000
ASUS43 KOAX 221610
RWRNE

WEATHER ROUNDUP FOR NEBRASKA
NATIONAL WEATHER SERVICE OMAHA NE
1000 AM CST WED NOV 22 2017

NOTES: SATELLITE DATA IS BEING USED TO AUGMENT CLOUD COVER ABOVE
       12000 FEET.
       "FAIR" INDICATES FEW OR NO CLOUDS BELOW 12,000 FEET WITH NO
       SIGNIFICANT WEATHER AND/OR OBSTRUCTIONS TO VISIBILITY.


NEZ001>004-019>022-054>056-221700-
NEBRASKA PANHANDLE

CITY           SKY/WX    TMP DP  RH WIND       PRES   REMARKS
SCOTTSBLUFF    CLOUDY    43  30  60 NW7       30.16S
ALLIANCE       SUNNY     48  39  71 W6        30.13R
CHADRON        CLOUDY    42  33  70 SW7       30.12R
GORDON         FAIR      45  33  62 W10       30.08F
KIMBALL        CLOUDY    51  38  60 W12       30.20F
SIDNEY         CLOUDY    52  36  54 W17G24    30.18S
$$

NEZ057>060-069>072-079>082-221700-
SOUTHWEST NEBRASKA

CITY           SKY/WX    TMP DP  RH WIND       PRES   REMARKS
NORTH PLATTE   CLOUDY    39  27  62 SW8       30.18F WCI  33
IMPERIAL       CLOUDY    48  35  60 W8        30.18F
LEXINGTON      CLOUDY    38  22  52 S13       30.21F WCI  30
MCCOOK         CLOUDY    40  27  59 SW8       30.21F WCI  34
OGALLALA       CLOUDY    43  34  71 W9        30.17S
$$

NEZ005>010-023>029-035>040-094-221700-
NORTH CENTRAL NEBRASKA

CITY           SKY/WX    TMP DP  RH WIND       PRES   REMARKS
VALENTINE      CLOUDY    39  29  67 SW8       30.07F WCI  33
AINSWORTH      CLOUDY    37  26  65 SW13      30.09S WCI  28
BROKEN BOW     MOSUNNY   36  21  54 SW13      30.16F WCI  27
O`NEILL        CLOUDY    31  19  62 S17       30.14F WCI  19
ORD            CLOUDY    30  16  56 S12       30.20F WCI  20
THEDFORD       CLOUDY    40  28  64 SW6       30.13S
$$

NEZ041-046>049-061>064-073>077-083>087-221700-
SOUTH CENTRAL NEBRASKA

CITY           SKY/WX    TMP DP  RH WIND       PRES   REMARKS
GRAND ISLAND   CLOUDY    30  16  56 S15G24    30.27F WCI  19
AURORA         CLOUDY    28  16  58 S15G22    30.27F WCI  17
HASTINGS       CLOUDY    28  13  53 S15G23    30.27F WCI  16
HEBRON         CLOUDY    30  15  54 SW9       30.37S WCI  21
HOLDREGE       CLOUDY    34  18  52 S20       30.24S WCI  23
YORK           CLOUDY    28  18  64 S17       30.31F WCI  16
$$

NEZ011>018-030>034-042>045-221700-
NORTHEAST NEBRASKA

CITY           SKY/WX    TMP DP  RH WIND       PRES   REMARKS
NORFOLK        CLOUDY    27  15  61 S15G23    30.24F WCI  15
ALBION         CLOUDY    29  17  60 S14       30.25S WCI  18
BLAIR          SUNNY     27  16  63 S15       30.35S WCI  15
COLUMBUS       CLOUDY    27  16  63 S16       30.31F WCI  15
FREMONT        SUNNY     26  15  63 S10       30.35F WCI  16
TEKAMAH        SUNNY     25  15  66 S9        30.36F WCI  15
WAYNE          CLOUDY    26  14  60 S15       30.27F WCI  14
$$

NEZ050>053-065>068-078-088>093-221700-
SOUTHEAST NEBRASKA

CITY           SKY/WX    TMP DP  RH WIND       PRES   REMARKS
LINCOLN        CLOUDY    27  15  61 S6        30.39F WCI  20
OMAHA EPPLEY   MOSUNNY   26  13  57 S13       30.39S WCI  15
BEATRICE       CLOUDY    28  16  60 S10       30.39F WCI  18
FALLS CITY     SUNNY     26  15  63 S7        30.42S WCI  18
NEBRASKA CITY  SUNNY     27  16  62 S12       30.40S WCI  17
PLATTSMOUTH    SUNNY     26  16  64 S12       30.38S WCI  16
$$

NEZ044-045-051>053-067-221700-
OMAHA AREA

CITY           SKY/WX    TMP DP  RH WIND       PRES   REMARKS
OMAHA EPPLEY   MOSUNNY   26  13  57 S13       30.39S WCI  15
BLAIR          SUNNY     27  16  63 S15       30.35S WCI  15
FREMONT        SUNNY     26  15  63 S10       30.35F WCI  16
MILLARD        SUNNY     28  15  58 S8        30.39F WCI  20
OFFUTT AFB     SUNNY     27  14  58 S9        30.39S WCI  18
PLATTSMOUTH    SUNNY     26  16  64 S12       30.38S WCI  16
WAHOO          FAIR      27  15  61 S10       30.37S WCI  17
$$



USA.gov is the U.S. government's official web portal to all federal, state and local government web resources and services.